OneWeb SL0189

operational
NORAD ID: 48217 Int'l Des: 2021-031 Owner: ONEWEBN Country: UK Constellation: oneweb
LEOCIRCULARPOLARONEWEB_TYPE

About OneWeb SL0189

Description loading...

Live Position

Loading 3D Globe...

Upcoming Passes

Altitude History

Altitude vs Time

uPlot chart will show altitude changes over time

Two-Line Element Set

1 48217U 21031H 26034.27195108 -.00000125 00000-0 -37051-3 0 9996
2 48217 87.9031 316.3931 0001691 90.8635 269.2689 13.14503386230636
Epoch: Feb 3, 2026 • Age: 12 hours

Current Status

Altitude 1232.0 km
Velocity 7.24 km/s
Sub-Earth Point -65.83°S, 107.04°W
Launch Date Apr 25, 2021
Age 4.7 years
Type internet

Technical Details

Classification Payload
Mass 148.00 kg
Dry Mass 140.00 kg
Total Mass 148.00 kg
Length 1.30 m
Diameter 1.00 m
Span 5.00 m
Shape Trapezoid+2 pan
Manufacturer ONEWUS
Bus Type ARROW
Phase Status In Orbit
Owner/State ONEWEBN/UK

Large Constellations

Loading constellations...